Location: Newark
(34.0131°N, 4.3314°W)
Time: 11:50:03
(UTC+00:00)

Courier 1B - Pass Details

Date: 30 October 2019
Orbit: 963 x 1209 km, 28.3° (Epoch: 12 November)

Event Time Altitude Azimuth Distance (km) Brightness Sun altitude
Rises 20:13:27 0° 266° (W) 4,084 11.7 -35.0°
Reaches altitude 10° 20:17:24 10° 248° (WSW) 3,135 10.7 -35.8°
Maximum altitude 20:22:12 18° 209° (SSW) 2,606 9.8 -36.8°
Enters shadow 20:23:50 16° 194° (SSW) 2,671 9.8 -37.2°
